Riverdale, MD

3:05 AM EDT on July 27, 2016 (GMT -0400)
College Park

Weather History for KCGS - January, 2014

Change the Weather History Date:

Tuesday, January 14, 2014

  Actual Average Record
Temperature  
Mean Temperature 44 °F -  
Max Temperature 54 °F 41 °F 70 °F (1952)
Min Temperature 35 °F 24 °F 8 °F (1962)
Degree Days  
Heating Degree Days 20    
Moisture  
Dew Point 44 °F    
Average Humidity 89    
Maximum Humidity 100    
Minimum Humidity 51    
Precipitation  
Precipitation 0.00 in - - ()
Sea Level Pressure  
Sea Level Pressure 29.82 in    
Wind  
Wind Speed 3 mph (SSW)    
Max Wind Speed 8 mph    
Max Gust Speed -    
Visibility 7 miles    
Events      
Averages and records for this station are not official NWS values.
T = Trace of Precipitation, MM = Missing Value Source: NWS Daily Summary

Daily Weather History Graph

Daily Weather History Graph

Search for Another Location

Airport or City:

Trip Planner

Search our weather history database for the weather conditions in past years. The results will help you decide how hot, cold, wet, or windy it might be!

Date:

Astronomy

Jan. 14, 2014 Rise Set
Actual Time 7:25 AM EST 5:08 PM EST
Civil Twilight 6:56 AM EST 5:37 PM EST
Nautical Twilight 6:23 AM EST 6:10 PM EST
Astronomical Twilight 5:51 AM EST 6:42 PM EST
Moon 4:11 PM EST (1/14) 5:58 AM EST (1/14)
Length of Visible Light 10h 41m
Length of Day
9h 43m
Waxing Gibbous, 98% of the Moon is Illuminated
Jan 14
Waxing Gibbous
Jan 15
Full
Jan 24
Last Quarter
Jan 30
New
Feb 6
First Quarter

Hourly Weather History & Observations

Time (EST) Temp. Dew Point Humidity Pressure Visibility Wind Dir Wind Speed Gust Speed Precip Events Conditions
12:00 AM 54.7 °F 36.9 °F 51% 29.88 in 10.0 mi Calm Calm - N/A   Clear
12:20 AM 54.7 °F 36.9 °F 51% 29.87 in 10.0 mi South 4.6 mph - N/A   Clear
12:40 AM 54.9 °F 37.0 °F 51% 29.86 in 10.0 mi SSW 4.6 mph - N/A   Mostly Cloudy
1:00 AM 54.7 °F 37.2 °F 52% 29.86 in 10.0 mi South 4.6 mph - N/A   Overcast
1:20 AM 52.9 °F 40.1 °F 62% 29.86 in 10.0 mi SSW 4.6 mph - N/A   Overcast
1:40 AM 51.6 °F 41.9 °F 69% 29.86 in 10.0 mi South 8.1 mph - N/A   Overcast
2:00 AM 50.9 °F 42.8 °F 74% 29.86 in 10.0 mi South 5.8 mph - N/A   Overcast
2:20 AM 50.7 °F 43.5 °F 76% 29.86 in 10.0 mi South 5.8 mph - N/A   Overcast
2:40 AM 50.4 °F 44.1 °F 79% 29.85 in 10.0 mi SSW 6.9 mph - N/A   Overcast
3:05 AM 49.5 °F 44.8 °F 84% 29.85 in 10.0 mi SW 6.9 mph - N/A   Overcast
3:25 AM 49.1 °F 45.5 °F 87% 29.84 in 5.0 mi South 6.9 mph - N/A   Overcast
3:45 AM 48.9 °F 46.2 °F 90% 29.82 in 7.0 mi South 8.1 mph - N/A   Overcast
4:05 AM 49.1 °F 46.4 °F 90% 29.81 in 10.0 mi South 3.5 mph - N/A   Overcast
4:20 AM 49.1 °F 46.0 °F 89% 29.81 in 10.0 mi Calm Calm - N/A   Overcast
4:45 AM 49.3 °F 45.9 °F 88% 29.79 in 10.0 mi South 3.5 mph - N/A   Overcast
5:05 AM 48.7 °F 46.0 °F 90% 29.80 in 10.0 mi SSE 3.5 mph - N/A   Overcast
5:25 AM 49.3 °F 45.9 °F 88% 29.81 in 10.0 mi South 3.5 mph - N/A   Overcast
5:45 AM 50.2 °F 45.5 °F 84% 29.81 in 10.0 mi South 4.6 mph - N/A   Overcast
6:05 AM 50.9 °F 45.5 °F 82% 29.81 in 10.0 mi South 3.5 mph - N/A   Overcast
6:25 AM 51.1 °F 45.5 °F 81% 29.81 in 10.0 mi South 3.5 mph - N/A   Overcast
6:45 AM 50.9 °F 45.3 °F 81% 29.80 in 10.0 mi SSW 4.6 mph - N/A   Overcast
7:05 AM 50.9 °F 45.5 °F 82% 29.80 in 10.0 mi South 3.5 mph - N/A   Overcast
7:25 AM 50.9 °F 45.5 °F 82% 29.79 in 10.0 mi SSW 4.6 mph - N/A   Overcast
7:45 AM 50.2 °F 46.0 °F 86% 29.78 in 7.0 mi Calm Calm - N/A   Overcast
8:05 AM 50.0 °F 46.4 °F 87% 29.78 in 10.0 mi Calm Calm - N/A   Overcast
8:25 AM 50.0 °F 46.4 °F 87% 29.77 in 10.0 mi Calm Calm - N/A   Overcast
8:45 AM 50.5 °F 46.0 °F 85% 29.77 in 10.0 mi Calm Calm - N/A   Overcast
9:05 AM 50.9 °F 45.9 °F 83% 29.78 in 10.0 mi Calm Calm - N/A   Overcast
9:25 AM 50.5 °F 46.0 °F 85% 29.77 in 10.0 mi Calm Calm - N/A   Overcast
9:45 AM 50.9 °F 46.0 °F 83% 29.78 in 10.0 mi Calm Calm - N/A   Overcast
10:05 AM 50.7 °F 46.6 °F 86% 29.77 in 10.0 mi Calm Calm - N/A   Overcast
10:25 AM 50.4 °F 46.9 °F 88% 29.77 in 7.0 mi South 4.6 mph - N/A   Overcast
10:45 AM 50.0 °F 47.5 °F 91% 29.78 in 5.0 mi South 3.5 mph - N/A   Overcast
11:05 AM 49.5 °F 48.0 °F 95% 29.76 in 5.0 mi Calm Calm - N/A   Overcast
11:25 AM 49.5 °F 48.2 °F 95% 29.75 in 7.0 mi Calm Calm - N/A   Overcast
11:45 AM 49.5 °F 48.2 °F 95% 29.76 in 5.0 mi SSW 3.5 mph - N/A   Overcast
12:05 PM 49.5 °F 48.6 °F 97% 29.74 in 3.0 mi Calm Calm - N/A   Overcast
12:25 PM 49.5 °F 48.7 °F 97% 29.74 in 3.0 mi Calm Calm - N/A   Overcast
12:45 PM 49.6 °F 49.1 °F 98% 29.74 in 4.0 mi Calm Calm - N/A   Overcast
1:05 PM 49.8 °F 49.1 °F 97% 29.73 in 5.0 mi WNW 5.8 mph - N/A   Overcast
1:25 PM 49.5 °F 48.2 °F 95% 29.75 in 7.0 mi WNW 5.8 mph - N/A   Overcast
1:45 PM 49.5 °F 48.2 °F 95% 29.74 in 4.0 mi WNW 5.8 mph - N/A   Overcast
2:05 PM 49.5 °F 47.8 °F 94% 29.74 in 10.0 mi WNW 3.5 mph - N/A   Overcast
2:25 PM 50.0 °F 47.5 °F 91% 29.73 in 7.0 mi NNW 3.5 mph - N/A   Overcast
2:45 PM 49.8 °F 47.7 °F 92% 29.71 in 10.0 mi Calm Calm - N/A   Overcast
3:05 PM 50.0 °F 47.5 °F 91% 29.73 in 10.0 mi Calm Calm - N/A   Overcast
3:25 PM 50.0 °F 47.8 °F 92% 29.75 in 10.0 mi Calm Calm - N/A   Overcast
3:45 PM 49.5 °F 47.7 °F 94% 29.75 in 10.0 mi Calm Calm - N/A   Overcast
4:05 PM 48.6 °F 47.8 °F 97% 29.75 in 3.0 mi Calm Calm - N/A   Overcast
4:25 PM 48.7 °F 48.2 °F 98% 29.77 in 10.0 mi Calm Calm - N/A   Overcast
4:45 PM 49.3 °F 48.2 °F 96% 29.79 in 10.0 mi Calm Calm - N/A   Overcast
5:05 PM 49.5 °F 47.8 °F 94% 29.79 in 10.0 mi West 3.5 mph - N/A   Scattered Clouds
5:25 PM 49.5 °F 47.5 °F 93% 29.81 in 10.0 mi Calm Calm - N/A   Mostly Cloudy
5:45 PM 49.6 °F 47.3 °F 92% 29.83 in 10.0 mi Calm Calm - N/A   Overcast
6:05 PM 49.3 °F 46.9 °F 92% 29.84 in 10.0 mi Calm Calm - N/A   Mostly Cloudy
6:25 PM 48.6 °F 46.6 °F 93% 29.85 in 10.0 mi Calm Calm - N/A   Scattered Clouds
6:45 PM 45.5 °F 44.6 °F 97% 29.86 in 2.5 mi Calm Calm - N/A   Clear
7:05 PM 43.9 °F 43.3 °F 98% 29.86 in 0.8 mi Calm Calm - N/A   Unknown
7:25 PM 42.1 °F 41.5 °F 98% 29.87 in 0.5 mi Calm Calm - N/A   Unknown
7:45 PM 41.9 °F 41.5 °F 99% 29.87 in 0.5 mi Calm Calm - N/A   Unknown
8:05 PM 39.0 °F 38.7 °F 99% 29.87 in 0.5 mi Calm Calm - N/A   Mostly Cloudy
8:25 PM 38.7 °F 38.3 °F 99% 29.87 in 0.2 mi Calm Calm - N/A   Overcast
8:45 PM 39.0 °F 39.0 °F 100% 29.89 in 0.5 mi Calm Calm - N/A   Overcast
9:05 PM 38.5 °F 38.3 °F 99% 29.90 in 0.5 mi Calm Calm - N/A   Mostly Cloudy
9:25 PM 37.6 °F 37.2 °F 99% 29.91 in 0.8 mi Calm Calm - N/A   Unknown
9:45 PM 36.3 °F 36.1 °F 99% 29.91 in 0.5 mi Calm Calm - N/A   Unknown
10:05 PM 36.7 °F 36.7 °F 100% 29.91 in 0.5 mi Calm Calm - N/A   Overcast
10:25 PM 36.3 °F 36.1 °F 99% 29.92 in 0.8 mi Calm Calm - N/A   Overcast
10:45 PM 35.6 °F 35.6 °F 100% 29.91 in 0.2 mi Calm Calm - N/A   Overcast
11:05 PM 36.3 °F 36.1 °F 99% 29.91 in 0.2 mi Calm Calm - N/A   Overcast
11:25 PM 37.0 °F 36.9 °F 99% 29.93 in 0.2 mi Calm Calm - N/A   Overcast
11:45 PM 36.5 °F 36.5 °F 100% 29.91 in 0.2 mi Calm Calm - N/A   Overcast